Regional Weather Roundup
Issued by NWS

Home | Current Version | Previous Version | Text Only | Print | Product List | Glossary Off
Versions: 1 2 3 4 5 6 7 8 9 10 11 12 13 14 15 16 17 18 19 20 21 22 23 24 25 26 27

000
ASUS45 KBOU 291807
RWRCO

WEATHER ROUNDUP FOR COLORADO
NATIONAL WEATHER SERVICE DENVER/BOULDER CO
1200 PM MDT MON MAY 29 2017

NOTE: "FAIR" INDICATES FEW OR NO CLOUDS BELOW 12000 FEET WITH NO
SIGNIFICANT WEATHER AND/OR OBSTRUCTIONS TO VISIBILITY.

COZ001>005-013-030-031-291900-
...NORTHWEST COLORADO...

CITY           SKY/WX    TMP DP  RH WIND       PRES   REMARKS
CRAIG          FAIR      65  33  30 VRB5      30.26F
HAYDEN         FAIR      63  34  34 SW5       30.27F
MEEKER         FAIR      68  31  25 S7        30.25F
RABBIT EARS PA FAIR      46  27  46 SW6       30.44S
STEAMBOAT SPGS FAIR      62  32  33 SW5       30.27F
WALDEN           N/A     57  30  35 NW6       30.34F
$$

COZ006>008-011-291900-
...WEST CENTRAL VALLEYS...

CITY           SKY/WX    TMP DP  RH WIND       PRES   REMARKS
GRAND JUNCTION FAIR      74  28  18 VRB7      30.15F
MONTROSE       FAIR      71  27  19 VRB6      30.22F
EAGLE          MOSUNNY   66  25  20 CALM      30.27F
RIFLE          FAIR      72  21  14 CALM      30.19F
DELTA          FAIR      74  25  16 SW5       30.18F
NUCLA          FAIR      72  21  15 N6        30.23F
$$

COZ017>023-064>068-291900-
...SOUTHWEST COLORADO...

CITY           SKY/WX    TMP DP  RH WIND       PRES   REMARKS
DURANGO        FAIR      69  16  13 MISG      30.24F
CORTEZ         FAIR      74  15  10 VRB3      30.19F
PAGOSA SPRINGS FAIR      65   8  10 SW7       30.30F
TELLURIDE      FAIR      60  10  13 S7        30.37S
WOLF CREEK PAS FAIR      45  16  31 SW7G18    30.55S
$$

COZ009-010-012-014-032>034-037-058>063-291900-
...CENTRAL COLORADO...

CITY           SKY/WX    TMP DP  RH WIND       PRES   REMARKS
ASPEN          FAIR      64  25  22 NW9G16    30.28F
BUENA VISTA    FAIR      61  25  25 NW3       30.30F
COPPER MTN     CLOUDY    45  14  29 CALM      30.50S THUNDER
BERTHOUD PASS  FAIR      36  27  69 NE3       30.52S THUNDER
COTTONWOOD PAS FAIR      59  25  27 SE8G17    30.39F
GUNNISON       FAIR      63  20  19 VRB6      30.29F
KREMMLING      PTSUNNY   63  34  34 W9        30.32S
LEADVILLE      FAIR      54  11  18 NW8       30.37F
MONARCH PASS   FAIR      45  14  29 SW18G33   30.60S
SALIDA         FAIR      65  25  22 NW3       30.35F
SUNLIGHT       PTSUNNY   45  18  33 CALM      30.49S
WILKERSON PASS FAIR      48  19  32 SW5       30.50S
$$

COZ069>075-291900-
...SAN LUIS VALLEY/SANGRE DE CRISTO MOUNTAINS...

CITY           SKY/WX    TMP DP  RH WIND       PRES   REMARKS
ALAMOSA        FAIR      64  24  21 E6        30.28F
DEL NORTE      FAIR      62  30  29 E12G20    30.31F
LA VETA PASS   FAIR      54  36  50 MISG      30.53S
SAGUACHE       FAIR      63  27  25 SE8       30.30F
$$

COZ035-036-038>040-291900-
...NORTHERN COLORADO FRONT RANGE...

CITY           SKY/WX    TMP DP  RH WIND       PRES   REMARKS
DENVER INTL AP FAIR      65  43  44 E10       30.24F
DMNS CITY PARK   N/A     66  38  35 E12       30.23F
AURORA         PTSUNNY   65  40  39 E7        30.25F
FRONT RANGE AP NOT AVBL
ERIE MUNI ARPT FAIR      67  38  34 SE8       30.24S
BOULDER MUN AP FAIR      68  39  34 E3        30.24S THUNDER
CENTENNIAL     FAIR      64  39  39 SE7       30.25F
BROOMFIELD     PTSUNNY   64  37  36 SE3       30.26S
FORT COLLINS   FAIR      66  41  40 S6        30.24F
LONGMONT       FAIR      68  42  38 CALM      30.25S HAZE
$$

COZ041-046-047-076>085-087-088-291900-
...PIKES PEAK/PALMER DIVIDE AND SOUTHERN FOOTHILLS...

CITY           SKY/WX    TMP DP  RH WIND       PRES   REMARKS
COLO. SPRINGS  FAIR      64  38  38 S13G21    30.28F THUNDER
A. F. ACADEMY  PTSUNNY   59  37  43 SE12      30.27F
SCHRIEVER AFB  FAIR      63  36  36 SE13      30.29F
CHEYENNE MTN   LGT RAIN  55  37  50 S12G21    30.25
ELLICOTT       FAIR     N/A N/A N/A S12       30.27F
FALCON         NOT AVBL
FORT CARSON    MOSUNNY   65  38  35 SE12G18   30.27S
LIMON          FAIR      64  43  46 VRB6      30.26F
MONUMENT HILL  FAIR      59  37  44 S10G18    30.31F
CANON CITY     NOT AVBL
WALSENBURG     FAIR      64  41  42 E3        30.26F
TRINIDAD       FAIR      67  38  34 MISG      30.24F
$$

COZ042>045-048>051-090-091-291900-
...NORTHEAST COLORADO...

CITY           SKY/WX    TMP DP  RH WIND       PRES   REMARKS
GREELEY ARPT   FAIR      69  42  37 CALM      30.24F
AKRON          FAIR      66  41  40 MISG      30.23F
BURLINGTON     PTSUNNY   69  45  41 N10       30.22F
WRAY           FAIR      73  37  27 NE9G17    30.18F
YUMA           FAIR      66  27  22 NW8       30.20F
STERLING       NOT AVBL
HOLYOKE        NOT AVBL
FORT MORGAN    FAIR      69  36  29 NW8       30.23F
$$

COZ086-089-092>099-291900-
...SOUTHEAST COLORADO...

CITY           SKY/WX    TMP DP  RH WIND       PRES   REMARKS
PUEBLO         FAIR      69  42  37 E9        30.22F
LA JUNTA       FAIR      69  44  40 E8        30.22F
LAMAR          FAIR      72  45  37 NE8       30.19F
SPRINGFIELD      N/A     70  41  34 VRB3      30.20F
$$




USA.gov is the U.S. government's official web portal to all federal, state and local government web resources and services.